This is the latest recevied weather packets stored in our database for station/object WC4PEM-10. If no packets are shown the sender has not sent any weather packets the latest 10 day(s).
| Time | Temp. | Humidity | Pressure | Rain* | Wind** | Luminosity | Snow |
|---|---|---|---|---|---|---|---|
| 1777693899 | 22.78° C | 89% | 1011.2 hPa | 0 mm | - | - | - |
| 1777693598 | 22.78° C | 88% | 1011.2 hPa | 0 mm | - | - | - |
| 1777693298 | 22.78° C | 88% | 1011.2 hPa | 0 mm | - | - | - |
| 1777692998 | 23.33° C | 88% | 1011.2 hPa | 0 mm | - | - | - |
| 1777692698 | 23.33° C | 88% | 1011.1 hPa | 0 mm | - | - | - |
| 1777692398 | 23.33° C | 87% | 1011.1 hPa | 0 mm | - | - | - |
| 1777692111 | 23.33° C | 86% | 1011 hPa | 0 mm | - | - | - |
| 1777692098 | 23.33° C | 87% | 1011 hPa | 0 mm | - | - | - |
| 1777691798 | 23.33° C | 86% | 1011 hPa | 0 mm | - | - | - |
| 1777691575 | 23.33° C | 85% | 1011.1 hPa | 0 mm | - | - | - |
| 1777691571 | 23.89° C | 84% | 1011.1 hPa | 0 mm | - | - | - |
| 1777691498 | 23.33° C | 86% | 1011 hPa | 0 mm | - | - | - |
| 1777691198 | 23.33° C | 85% | 1011.1 hPa | 0 mm | - | - | - |
| 1777690898 | 23.89° C | 85% | 1011.2 hPa | 0 mm | - | - | - |
| 1777690793 | 23.89° C | 83% | 1011.4 hPa | 0 mm | - | - | - |
| 1777690598 | 23.89° C | 84% | 1011.1 hPa | 0 mm | - | - | - |
| 1777690549 | 23.89° C | 82% | 1011.3 hPa | 0 mm | - | - | - |
| 1777690298 | 23.89° C | 84% | 1011.2 hPa | 0 mm | - | - | - |
| 1777689998 | 23.89° C | 83% | 1011.4 hPa | 0 mm | - | - | - |
| 1777689699 | 23.89° C | 82% | 1011.3 hPa | 0 mm | - | - | - |
| 1777689550 | 24.44° C | 80% | 1011.2 hPa | 0 mm | - | - | - |
| 1777689399 | 23.89° C | 82% | 1011.4 hPa | 0 mm | - | - | - |
| 1777689099 | 24.44° C | 81% | 1011.3 hPa | 0 mm | - | - | - |
| 1777688910 | 24.44° C | 80% | 1011.2 hPa | 0 mm | - | - | - |
| 1777688799 | 24.44° C | 81% | 1011.2 hPa | 0 mm | - | - | - |
* Rain latest hour (hover to see other rain measurements)
** Current wind speed in m/s (hover to see current wind gust speed)